Tracking 35331 objects as of 15-Sep-2026
HD Live streaming from Space Station
objects crossing your sky now

PEGASUS DEB

Track PEGASUS DEB now!
10-day predictions


NORAD ID: 24973
Int'l Code: 1994-029ACF
Launch date: May 19, 1994
Source: United States (US)
Launch site: AIR FORCE WESTERN TEST RANGE (AFWTR)

Note: This is SATELLITE DEBRIS
Your satellite tracking list
Your tracking list is empty




NASA's NSSDC Master Catalog

Two Line Element Set (TLE):
1 24973U 94029ACF 26258.63153611  .00001543  00000-0  31696-3 0  9999
2 24973  82.0153 321.2734 0292491 233.9292 281.1107 14.36584896561821
Source of the keplerian elements: AFSPC